Location: ????????
(60.4333°N, 46.4710°E)
Time: 03:55:04
(UTC+00:00)

Meteor 1-26 Rocket - Pass Details

Date: 25 November 2020
Orbit: 807 x 928 km, 81.3° (Epoch: 19 January)

Event Time Altitude Azimuth Distance (km) Brightness Sun altitude
Rises 15:06:13 0° 176° (S) 3,565 7.5 -21.1°
Reaches altitude 10° 15:08:44 10° 172° (S) 2,630 6.7 -21.4°
Maximum altitude 15:14:35 55° 97° (E) 1,110 4.4 -22.2°
Enters shadow 15:17:50 26° 31° (NNE) 1,730 5.5 -22.6°
